GFSNE_prec_pwat_219.txt.gz
Precipitable_Water
0.65 0.70 0.73 0.66 0.61 0.56 0.53 0.51 0.44 0.32 0.33 0.42 0.44 0.54 0.56 0.58 0.60 0.62 0.66 0.70 0.72 0.79 0.83 0.85 0.80 0.76 0.74 0.80 0.88 1.12 1.08 1.09 1.07 1.01 1.02 0.99 0.96 0.97
0.70 0.70 0.63 0.59 0.55 0.52 0.51 0.49 0.46 0.41 0.32 0.42 0.42 0.47 0.53 0.56 0.59 0.62 0.65 0.67 0.73 0.77 0.82 0.84 0.82 0.76 0.75 0.78 0.75 0.93 1.04 1.07 1.04 1.03 0.99 0.97 0.97 0.96
0.64 0.60 0.56 0.52 0.48 0.48 0.47 0.46 0.45 0.44 0.37 0.39 0.45 0.48 0.51 0.54 0.59 0.62 0.64 0.64 0.70 0.78 0.84 0.84 0.83 0.75 0.73 0.76 0.80 0.87 1.01 1.05 1.02 1.00 0.96 0.94 0.95 0.95
0.58 0.54 0.49 0.48 0.46 0.46 0.45 0.45 0.45 0.47 0.43 0.37 0.44 0.49 0.54 0.60 0.61 0.62 0.65 0.68 0.67 0.73 0.80 0.88 0.87 0.79 0.75 0.74 0.78 0.81 0.98 1.01 1.00 0.98 0.92 0.93 0.92 0.92
0.54 0.49 0.46 0.46 0.44 0.45 0.46 0.46 0.47 0.48 0.47 0.44 0.43 0.53 0.56 0.60 0.60 0.63 0.64 0.65 0.68 0.69 0.75 0.84 0.82 0.82 0.81 0.80 0.77 0.80 0.92 0.97 0.97 0.94 0.93 0.91 0.90 0.89
0.50 0.48 0.46 0.45 0.45 0.46 0.47 0.47 0.47 0.45 0.46 0.46 0.47 0.51 0.56 0.59 0.61 0.58 0.57 0.61 0.61 0.67 0.73 0.80 0.81 0.83 0.80 0.81 0.89 0.84 0.94 0.93 0.93 0.92 0.90 0.88 0.86 0.84
0.48 0.47 0.47 0.47 0.48 0.49 0.48 0.47 0.46 0.45 0.44 0.45 0.47 0.51 0.53 0.55 0.55 0.58 0.56 0.57 0.59 0.66 0.72 0.75 0.77 0.77 0.77 0.80 0.80 0.83 0.88 0.89 0.89 0.87 0.86 0.84 0.81 0.80
0.45 0.46 0.47 0.48 0.49 0.50 0.50 0.50 0.50 0.45 0.44 0.47 0.49 0.51 0.55 0.59 0.59 0.56 0.55 0.53 0.50 0.67 0.67 0.65 0.76 0.72 0.76 0.76 0.76 0.78 0.79 0.85 0.84 0.84 0.82 0.79 0.77 0.75
0.46 0.46 0.44 0.48 0.50 0.49 0.50 0.50 0.50 0.52 0.54 0.53 0.52 0.55 0.56 0.61 0.59 0.55 0.56 0.55 0.54 0.62 0.63 0.58 0.67 0.66 0.73 0.71 0.71 0.78 0.79 0.81 0.79 0.78 0.77 0.74 0.73 0.71
0.47 0.46 0.46 0.48 0.49 0.48 0.47 0.47 0.49 0.52 0.56 0.59 0.60 0.62 0.63 0.63 0.60 0.59 0.58 0.56 0.58 0.61 0.62 0.52 0.59 0.59 0.65 0.68 0.78 0.78 0.77 0.75 0.75 0.73 0.72 0.70 0.68 0.67
0.47 0.48 0.48 0.47 0.48 0.48 0.46 0.45 0.48 0.52 0.60 0.63 0.66 0.68 0.66 0.64 0.62 0.59 0.53 0.51 0.49 0.53 0.58 0.53 0.53 0.57 0.60 0.63 0.69 0.74 0.72 0.72 0.70 0.68 0.67 0.65 0.64 0.62
0.47 0.47 0.48 0.48 0.49 0.48 0.46 0.45 0.45 0.50 0.55 0.58 0.61 0.62 0.61 0.60 0.61 0.60 0.57 0.51 0.51 0.49 0.55 0.52 0.54 0.55 0.49 0.56 0.59 0.65 0.64 0.66 0.65 0.64 0.63 0.61 0.59 0.54
0.45 0.45 0.47 0.47 0.47 0.46 0.47 0.47 0.48 0.54 0.57 0.57 0.58 0.58 0.59 0.59 0.59 0.62 0.61 0.57 0.52 0.49 0.56 0.54 0.52 0.52 0.50 0.48 0.53 0.57 0.59 0.58 0.58 0.58 0.58 0.57 0.53 0.49
0.44 0.45 0.45 0.45 0.44 0.44 0.46 0.48 0.51 0.54 0.55 0.55 0.57 0.56 0.55 0.57 0.59 0.61 0.62 0.61 0.59 0.52 0.56 0.56 0.51 0.49 0.48 0.46 0.44 0.49 0.52 0.54 0.55 0.53 0.53 0.54 0.53 0.51
0.44 0.42 0.41 0.41 0.40 0.40 0.43 0.44 0.47 0.50 0.51 0.51 0.52 0.55 0.57 0.56 0.55 0.57 0.59 0.58 0.58 0.54 0.56 0.56 0.55 0.54 0.50 0.47 0.46 0.47 0.46 0.48 0.50 0.49 0.50 0.49 0.47 0.44
0.41 0.40 0.39 0.37 0.38 0.39 0.40 0.41 0.42 0.44 0.45 0.48 0.49 0.53 0.56 0.55 0.53 0.54 0.51 0.51 0.48 0.47 0.53 0.56 0.55 0.54 0.50 0.49 0.48 0.46 0.46 0.43 0.46 0.47 0.47 0.46 0.46 0.45
0.38 0.37 0.35 0.34 0.34 0.35 0.36 0.38 0.38 0.40 0.41 0.43 0.45 0.48 0.50 0.51 0.51 0.53 0.52 0.49 0.45 0.44 0.44 0.48 0.52 0.52 0.51 0.49 0.44 0.44 0.44 0.43 0.45 0.45 0.44 0.42 0.44 0.44
0.35 0.33 0.32 0.33 0.32 0.33 0.34 0.34 0.36 0.37 0.38 0.40 0.41 0.42 0.43 0.45 0.47 0.49 0.49 0.47 0.45 0.45 0.45 0.46 0.47 0.45 0.45 0.45 0.47 0.43 0.42 0.42 0.42 0.42 0.41 0.39 0.39 0.42
0.33 0.32 0.31 0.31 0.32 0.33 0.34 0.33 0.34 0.37 0.39 0.38 0.39 0.40 0.40 0.42 0.43 0.44 0.45 0.44 0.43 0.43 0.44 0.45 0.43 0.40 0.36 0.34 0.41 0.46 0.40 0.40 0.40 0.38 0.39 0.38 0.37 0.39
0.32 0.32 0.32 0.32 0.32 0.33 0.33 0.33 0.34 0.36 0.37 0.38 0.38 0.39 0.40 0.40 0.40 0.41 0.43 0.42 0.41 0.41 0.41 0.42 0.42 0.40 0.37 0.35 0.36 0.40 0.44 0.40 0.38 0.37 0.36 0.38 0.39 0.41
0.31 0.32 0.33 0.33 0.34 0.34 0.34 0.34 0.34 0.35 0.36 0.37 0.37 0.38 0.39 0.39 0.39 0.40 0.41 0.41 0.41 0.40 0.38 0.38 0.41 0.44 0.43 0.42 0.36 0.36 0.40 0.44 0.42 0.38 0.38 0.35 0.34 0.34
0.32 0.32 0.33 0.34 0.34 0.34 0.34 0.34 0.34 0.35 0.35 0.36 0.37 0.38 0.39 0.39 0.38 0.38 0.39 0.39 0.39 0.39 0.39 0.40 0.42 0.42 0.39 0.36 0.34 0.34 0.36 0.39 0.42 0.42 0.41 0.38 0.34 0.30
0.32 0.32 0.33 0.33 0.33 0.32 0.33 0.34 0.34 0.34 0.35 0.35 0.36 0.37 0.38 0.37 0.38 0.38 0.38 0.38 0.38 0.38 0.38 0.37 0.39 0.39 0.37 0.36 0.34 0.34 0.34 0.34 0.35 0.34 0.36 0.40 0.40 0.38

GFSNE_prec_pwat_222.txt.gz
Precipitable_Water
0.67 0.69 0.69 0.69 0.71 0.70 0.66 0.61 0.50 0.36 0.35 0.42 0.41 0.47 0.49 0.51 0.53 0.53 0.49 0.51 0.55 0.56 0.62 0.69 0.75 0.81 0.80 0.82 0.78 0.81 0.82 0.87 1.02 1.08 1.07 1.06 1.04 1.02
0.68 0.68 0.70 0.69 0.65 0.61 0.57 0.53 0.46 0.40 0.34 0.42 0.42 0.47 0.49 0.49 0.51 0.51 0.53 0.57 0.58 0.59 0.62 0.64 0.72 0.83 0.83 0.81 0.78 0.78 0.81 0.88 0.97 1.08 1.02 1.05 1.03 1.02
0.69 0.68 0.64 0.62 0.59 0.58 0.53 0.48 0.44 0.43 0.37 0.40 0.45 0.47 0.47 0.47 0.49 0.53 0.58 0.59 0.61 0.62 0.65 0.66 0.70 0.80 0.85 0.78 0.76 0.73 0.76 0.83 1.05 1.03 1.05 1.00 1.00 0.97
0.66 0.62 0.61 0.61 0.56 0.54 0.48 0.44 0.44 0.47 0.42 0.36 0.42 0.43 0.45 0.49 0.51 0.52 0.55 0.61 0.62 0.64 0.64 0.63 0.66 0.78 0.87 0.80 0.78 0.77 0.73 0.79 0.81 0.97 0.98 1.00 0.98 0.97
0.59 0.60 0.58 0.55 0.52 0.48 0.46 0.45 0.46 0.46 0.44 0.41 0.39 0.45 0.46 0.51 0.52 0.55 0.58 0.61 0.64 0.63 0.64 0.64 0.63 0.72 0.83 0.82 0.84 0.81 0.75 0.87 0.93 0.89 0.97 0.99 0.97 0.97
0.56 0.60 0.60 0.54 0.47 0.46 0.46 0.46 0.46 0.43 0.43 0.41 0.40 0.41 0.45 0.51 0.54 0.53 0.55 0.61 0.60 0.63 0.62 0.65 0.66 0.69 0.79 0.82 0.83 0.82 0.81 0.82 0.86 0.88 0.98 0.95 0.95 0.93
0.62 0.60 0.59 0.52 0.49 0.49 0.48 0.47 0.46 0.43 0.42 0.39 0.39 0.42 0.44 0.46 0.49 0.56 0.55 0.58 0.59 0.61 0.60 0.64 0.69 0.72 0.76 0.80 0.81 0.83 0.83 0.81 0.81 0.90 0.92 0.92 0.92 0.89
0.58 0.60 0.52 0.50 0.50 0.51 0.50 0.49 0.48 0.44 0.41 0.41 0.41 0.41 0.44 0.50 0.54 0.55 0.54 0.52 0.48 0.61 0.59 0.59 0.64 0.66 0.75 0.78 0.82 0.81 0.85 0.88 0.94 0.90 0.89 0.88 0.87 0.84
0.57 0.54 0.51 0.50 0.50 0.49 0.49 0.48 0.48 0.50 0.50 0.47 0.43 0.45 0.48 0.54 0.55 0.55 0.54 0.52 0.51 0.56 0.56 0.52 0.60 0.62 0.73 0.78 0.79 0.82 0.82 0.83 0.83 0.85 0.84 0.83 0.81 0.79
0.54 0.53 0.49 0.48 0.49 0.48 0.47 0.46 0.46 0.48 0.50 0.51 0.50 0.51 0.55 0.60 0.59 0.59 0.56 0.55 0.55 0.56 0.58 0.47 0.57 0.59 0.68 0.72 0.77 0.76 0.76 0.79 0.77 0.81 0.80 0.77 0.76 0.73
0.54 0.51 0.49 0.48 0.48 0.48 0.44 0.42 0.43 0.47 0.53 0.55 0.55 0.55 0.57 0.60 0.60 0.58 0.53 0.50 0.48 0.50 0.56 0.50 0.52 0.55 0.59 0.60 0.66 0.70 0.74 0.77 0.77 0.76 0.74 0.72 0.70 0.68
0.50 0.49 0.49 0.48 0.47 0.45 0.42 0.41 0.40 0.45 0.49 0.53 0.55 0.55 0.57 0.59 0.61 0.60 0.56 0.50 0.50 0.48 0.54 0.49 0.50 0.52 0.48 0.54 0.58 0.64 0.71 0.73 0.73 0.71 0.69 0.68 0.66 0.62
0.47 0.46 0.48 0.47 0.44 0.41 0.40 0.39 0.39 0.46 0.48 0.51 0.52 0.55 0.56 0.57 0.58 0.60 0.60 0.57 0.52 0.50 0.57 0.54 0.52 0.53 0.50 0.49 0.56 0.61 0.64 0.63 0.63 0.63 0.64 0.63 0.62 0.60
0.47 0.47 0.46 0.43 0.40 0.38 0.37 0.38 0.40 0.42 0.44 0.45 0.47 0.50 0.52 0.55 0.57 0.60 0.61 0.61 0.60 0.55 0.55 0.56 0.52 0.52 0.51 0.49 0.48 0.54 0.57 0.58 0.59 0.57 0.58 0.57 0.57 0.55
0.49 0.46 0.42 0.39 0.37 0.36 0.36 0.37 0.38 0.38 0.38 0.37 0.39 0.44 0.49 0.54 0.56 0.57 0.58 0.59 0.59 0.57 0.55 0.55 0.53 0.51 0.50 0.47 0.45 0.47 0.48 0.50 0.54 0.53 0.53 0.52 0.51 0.50
0.47 0.42 0.38 0.36 0.36 0.35 0.35 0.36 0.36 0.37 0.36 0.35 0.36 0.41 0.45 0.47 0.50 0.54 0.53 0.53 0.50 0.50 0.54 0.54 0.54 0.54 0.49 0.48 0.49 0.47 0.48 0.44 0.48 0.49 0.49 0.48 0.48 0.47
0.44 0.38 0.34 0.32 0.31 0.32 0.33 0.34 0.34 0.35 0.34 0.36 0.36 0.37 0.38 0.40 0.41 0.47 0.49 0.50 0.47 0.46 0.45 0.48 0.51 0.53 0.51 0.50 0.45 0.46 0.45 0.45 0.47 0.46 0.45 0.43 0.44 0.43
0.39 0.33 0.30 0.30 0.30 0.30 0.31 0.31 0.32 0.33 0.33 0.34 0.35 0.36 0.36 0.36 0.37 0.40 0.43 0.45 0.44 0.45 0.45 0.46 0.46 0.45 0.45 0.46 0.49 0.44 0.44 0.43 0.44 0.44 0.43 0.40 0.39 0.40
0.34 0.31 0.29 0.29 0.30 0.31 0.31 0.31 0.30 0.33 0.34 0.33 0.34 0.34 0.35 0.36 0.36 0.36 0.38 0.40 0.41 0.42 0.43 0.45 0.44 0.42 0.37 0.35 0.41 0.46 0.40 0.41 0.40 0.40 0.40 0.39 0.37 0.38
0.33 0.31 0.30 0.31 0.31 0.31 0.31 0.31 0.32 0.33 0.33 0.33 0.34 0.35 0.36 0.35 0.35 0.35 0.37 0.37 0.38 0.40 0.40 0.42 0.41 0.40 0.38 0.36 0.36 0.40 0.44 0.39 0.38 0.37 0.36 0.38 0.39 0.41
0.32 0.31 0.32 0.32 0.32 0.32 0.32 0.32 0.32 0.33 0.33 0.33 0.34 0.35 0.36 0.35 0.34 0.35 0.36 0.37 0.38 0.38 0.37 0.37 0.40 0.44 0.43 0.42 0.36 0.35 0.39 0.42 0.41 0.37 0.37 0.34 0.33 0.33
0.32 0.32 0.32 0.33 0.33 0.33 0.32 0.32 0.31 0.31 0.32 0.33 0.34 0.35 0.35 0.35 0.35 0.35 0.36 0.36 0.36 0.37 0.37 0.39 0.41 0.41 0.39 0.35 0.33 0.34 0.35 0.38 0.41 0.40 0.40 0.37 0.33 0.29
0.31 0.32 0.32 0.31 0.32 0.32 0.32 0.32 0.31 0.31 0.32 0.32 0.33 0.34 0.34 0.33 0.35 0.36 0.37 0.37 0.37 0.36 0.37 0.36 0.37 0.38 0.36 0.34 0.33 0.33 0.33 0.33 0.34 0.34 0.35 0.39 0.40 0.38

GFSNE_prec_pwat_228.txt.gz
Precipitable_Water
0.83 0.76 0.68 0.62 0.64 0.64 0.62 0.58 0.50 0.42 0.44 0.53 0.52 0.58 0.57 0.57 0.55 0.54 0.53 0.53 0.53 0.53 0.51 0.51 0.51 0.52 0.54 0.56 0.56 0.58 0.72 0.76 0.78 0.73 0.74 0.79 0.93 1.00
0.74 0.66 0.59 0.65 0.64 0.61 0.57 0.56 0.54 0.48 0.43 0.51 0.54 0.56 0.56 0.54 0.53 0.53 0.52 0.52 0.52 0.53 0.53 0.52 0.52 0.54 0.56 0.57 0.56 0.57 0.68 0.76 0.79 0.78 0.78 0.98 0.95 1.00
0.66 0.59 0.64 0.63 0.58 0.57 0.55 0.54 0.53 0.51 0.44 0.51 0.53 0.54 0.50 0.49 0.50 0.51 0.52 0.51 0.51 0.53 0.53 0.54 0.54 0.57 0.58 0.58 0.58 0.58 0.64 0.77 0.78 0.80 0.80 1.03 1.04 1.03
0.59 0.64 0.61 0.58 0.56 0.55 0.55 0.53 0.51 0.52 0.49 0.42 0.47 0.48 0.47 0.50 0.49 0.49 0.50 0.52 0.51 0.52 0.54 0.56 0.58 0.59 0.60 0.60 0.60 0.59 0.65 0.78 0.79 0.77 0.80 0.85 0.96 0.97
0.64 0.61 0.57 0.56 0.54 0.54 0.54 0.52 0.53 0.51 0.49 0.46 0.45 0.49 0.47 0.49 0.47 0.48 0.47 0.49 0.50 0.52 0.55 0.59 0.60 0.61 0.63 0.64 0.64 0.62 0.68 0.75 0.81 0.75 0.77 0.78 0.86 0.94
0.62 0.58 0.56 0.55 0.54 0.55 0.55 0.55 0.51 0.48 0.48 0.47 0.45 0.43 0.45 0.47 0.46 0.41 0.41 0.46 0.46 0.53 0.57 0.57 0.58 0.60 0.62 0.64 0.65 0.64 0.68 0.76 0.80 0.77 0.81 0.80 0.82 0.86
0.61 0.56 0.56 0.57 0.59 0.60 0.58 0.52 0.52 0.49 0.46 0.44 0.41 0.41 0.41 0.40 0.38 0.42 0.40 0.43 0.48 0.51 0.51 0.53 0.54 0.56 0.58 0.61 0.63 0.63 0.71 0.74 0.77 0.77 0.80 0.81 0.96 0.98
0.56 0.54 0.56 0.58 0.60 0.60 0.57 0.56 0.54 0.48 0.44 0.42 0.40 0.38 0.39 0.41 0.43 0.42 0.41 0.40 0.38 0.53 0.48 0.49 0.53 0.51 0.53 0.57 0.60 0.63 0.68 0.74 0.74 0.78 0.82 0.80 0.90 0.94
0.55 0.54 0.55 0.62 0.61 0.58 0.57 0.55 0.53 0.50 0.49 0.45 0.40 0.40 0.40 0.43 0.44 0.42 0.42 0.42 0.41 0.48 0.48 0.44 0.48 0.47 0.54 0.58 0.63 0.68 0.69 0.76 0.76 0.79 0.86 0.82 0.94 0.94
0.56 0.59 0.62 0.60 0.59 0.56 0.55 0.52 0.50 0.49 0.49 0.47 0.45 0.45 0.46 0.47 0.47 0.46 0.45 0.45 0.48 0.49 0.49 0.40 0.46 0.46 0.53 0.60 0.65 0.70 0.74 0.75 0.77 0.79 0.82 0.87 0.88 0.87
0.59 0.62 0.58 0.58 0.57 0.58 0.52 0.48 0.47 0.46 0.48 0.47 0.47 0.48 0.48 0.49 0.49 0.48 0.43 0.42 0.40 0.44 0.50 0.45 0.46 0.46 0.50 0.55 0.63 0.68 0.71 0.74 0.75 0.75 0.79 0.81 0.82 0.84
0.56 0.59 0.63 0.60 0.58 0.54 0.50 0.47 0.43 0.42 0.43 0.43 0.44 0.45 0.46 0.47 0.48 0.47 0.46 0.40 0.40 0.41 0.49 0.46 0.45 0.44 0.42 0.52 0.58 0.63 0.67 0.71 0.75 0.76 0.77 0.78 0.79 0.76
0.60 0.61 0.57 0.58 0.57 0.53 0.51 0.48 0.43 0.43 0.41 0.41 0.40 0.40 0.41 0.42 0.43 0.45 0.46 0.45 0.42 0.43 0.51 0.50 0.47 0.45 0.44 0.46 0.53 0.59 0.63 0.64 0.66 0.69 0.71 0.73 0.74 0.72
0.57 0.55 0.56 0.57 0.55 0.53 0.51 0.46 0.43 0.40 0.38 0.36 0.35 0.34 0.35 0.36 0.39 0.41 0.43 0.45 0.47 0.47 0.52 0.54 0.50 0.45 0.44 0.45 0.47 0.53 0.54 0.58 0.60 0.61 0.64 0.66 0.66 0.67
0.58 0.57 0.57 0.56 0.54 0.52 0.49 0.44 0.40 0.37 0.34 0.32 0.31 0.32 0.33 0.36 0.37 0.37 0.39 0.41 0.44 0.47 0.51 0.54 0.54 0.50 0.47 0.45 0.45 0.47 0.48 0.51 0.56 0.57 0.59 0.59 0.59 0.61
0.58 0.56 0.55 0.54 0.53 0.50 0.46 0.42 0.38 0.36 0.33 0.31 0.31 0.32 0.34 0.33 0.32 0.34 0.33 0.35 0.35 0.38 0.46 0.50 0.53 0.54 0.49 0.48 0.48 0.48 0.51 0.48 0.52 0.54 0.56 0.55 0.56 0.56
0.57 0.55 0.52 0.50 0.48 0.46 0.42 0.39 0.36 0.34 0.32 0.32 0.31 0.30 0.31 0.31 0.31 0.33 0.32 0.32 0.30 0.32 0.35 0.42 0.48 0.53 0.52 0.49 0.46 0.47 0.48 0.48 0.50 0.51 0.51 0.49 0.50 0.50
0.54 0.50 0.48 0.47 0.44 0.42 0.38 0.35 0.34 0.33 0.31 0.31 0.31 0.31 0.30 0.30 0.30 0.31 0.31 0.30 0.29 0.31 0.32 0.36 0.39 0.42 0.45 0.46 0.48 0.44 0.45 0.46 0.47 0.47 0.47 0.45 0.43 0.46
0.50 0.48 0.47 0.45 0.41 0.39 0.36 0.34 0.31 0.32 0.32 0.31 0.31 0.30 0.30 0.30 0.29 0.28 0.29 0.29 0.29 0.30 0.32 0.35 0.35 0.35 0.34 0.35 0.42 0.47 0.42 0.43 0.43 0.43 0.43 0.43 0.41 0.41
0.49 0.47 0.44 0.41 0.38 0.35 0.33 0.32 0.31 0.31 0.31 0.31 0.30 0.30 0.30 0.29 0.28 0.28 0.28 0.28 0.28 0.30 0.31 0.34 0.34 0.34 0.33 0.33 0.36 0.39 0.45 0.42 0.41 0.39 0.39 0.40 0.41 0.41
0.46 0.44 0.42 0.39 0.35 0.33 0.32 0.31 0.31 0.31 0.30 0.30 0.30 0.30 0.30 0.29 0.28 0.29 0.29 0.29 0.29 0.29 0.29 0.31 0.34 0.38 0.38 0.38 0.34 0.35 0.39 0.43 0.42 0.39 0.38 0.36 0.35 0.36
0.42 0.39 0.38 0.36 0.34 0.32 0.31 0.31 0.31 0.30 0.30 0.30 0.30 0.30 0.30 0.30 0.29 0.29 0.30 0.29 0.29 0.30 0.31 0.34 0.36 0.36 0.35 0.32 0.31 0.33 0.34 0.37 0.40 0.41 0.40 0.38 0.34 0.30
0.38 0.37 0.35 0.34 0.33 0.32 0.31 0.30 0.30 0.29 0.29 0.29 0.28 0.29 0.29 0.28 0.30 0.31 0.30 0.31 0.31 0.31 0.31 0.31 0.33 0.34 0.32 0.32 0.31 0.31 0.32 0.33 0.34 0.34 0.35 0.39 0.38 0.37

GFSNE_prec_pwat_234.txt.gz
Precipitable_Water
1.34 1.31 1.21 1.14 1.09 1.01 0.88 0.74 0.62 0.52 0.51 0.54 0.52 0.59 0.60 0.59 0.57 0.55 0.55 0.54 0.51 0.51 0.50 0.50 0.50 0.52 0.53 0.55 0.56 0.56 0.56 0.55 0.55 0.56 0.57 0.57 0.60 0.68
1.28 1.21 1.13 1.10 1.05 0.92 0.79 0.72 0.69 0.58 0.47 0.51 0.53 0.57 0.61 0.58 0.57 0.56 0.55 0.51 0.50 0.49 0.49 0.49 0.50 0.51 0.52 0.53 0.55 0.55 0.57 0.58 0.58 0.58 0.57 0.57 0.59 0.70
1.17 1.14 1.09 1.08 0.96 0.81 0.74 0.74 0.68 0.59 0.49 0.52 0.57 0.59 0.59 0.57 0.56 0.55 0.53 0.50 0.49 0.49 0.49 0.49 0.49 0.50 0.51 0.52 0.52 0.53 0.54 0.56 0.58 0.58 0.57 0.57 0.61 0.73
1.07 1.06 1.04 1.06 0.93 0.73 0.72 0.71 0.63 0.59 0.52 0.49 0.55 0.56 0.58 0.58 0.54 0.51 0.49 0.49 0.49 0.49 0.48 0.48 0.49 0.50 0.50 0.49 0.49 0.49 0.51 0.53 0.55 0.57 0.56 0.56 0.66 0.74
1.08 1.07 0.97 0.90 0.77 0.73 0.70 0.63 0.60 0.58 0.56 0.53 0.53 0.59 0.57 0.55 0.51 0.50 0.48 0.47 0.48 0.49 0.49 0.49 0.50 0.49 0.48 0.47 0.48 0.48 0.49 0.50 0.50 0.55 0.55 0.58 0.70 0.74
1.02 1.04 0.99 0.79 0.70 0.65 0.64 0.62 0.61 0.58 0.57 0.56 0.56 0.56 0.52 0.52 0.49 0.43 0.40 0.45 0.43 0.47 0.49 0.49 0.50 0.50 0.48 0.47 0.49 0.49 0.50 0.51 0.52 0.52 0.57 0.64 0.71 0.73
0.99 0.89 0.81 0.69 0.66 0.68 0.61 0.60 0.60 0.60 0.59 0.57 0.53 0.50 0.47 0.46 0.43 0.43 0.40 0.41 0.43 0.47 0.46 0.46 0.47 0.48 0.47 0.46 0.47 0.48 0.52 0.53 0.55 0.53 0.61 0.66 0.69 0.72
0.94 0.78 0.73 0.68 0.65 0.61 0.60 0.60 0.61 0.60 0.56 0.52 0.49 0.46 0.46 0.46 0.45 0.41 0.40 0.37 0.33 0.47 0.44 0.42 0.48 0.46 0.45 0.45 0.46 0.48 0.52 0.56 0.57 0.56 0.61 0.67 0.73 0.75
0.78 0.72 0.66 0.66 0.66 0.62 0.58 0.59 0.57 0.55 0.56 0.55 0.48 0.48 0.45 0.47 0.42 0.39 0.40 0.39 0.38 0.43 0.43 0.38 0.46 0.42 0.45 0.45 0.49 0.50 0.53 0.58 0.60 0.59 0.63 0.69 0.74 0.80
0.74 0.66 0.67 0.67 0.64 0.60 0.61 0.57 0.56 0.59 0.58 0.55 0.54 0.52 0.51 0.49 0.44 0.42 0.40 0.41 0.43 0.46 0.46 0.34 0.42 0.41 0.44 0.46 0.50 0.51 0.54 0.58 0.62 0.65 0.66 0.71 0.77 0.80
0.68 0.71 0.70 0.65 0.63 0.61 0.59 0.57 0.57 0.57 0.58 0.57 0.55 0.53 0.52 0.49 0.45 0.41 0.37 0.35 0.33 0.38 0.44 0.39 0.40 0.39 0.42 0.43 0.49 0.51 0.55 0.59 0.63 0.69 0.73 0.74 0.77 0.79
0.70 0.67 0.66 0.67 0.61 0.58 0.60 0.57 0.53 0.53 0.52 0.53 0.53 0.52 0.51 0.47 0.42 0.41 0.38 0.33 0.33 0.33 0.40 0.36 0.38 0.39 0.35 0.44 0.46 0.49 0.53 0.57 0.60 0.68 0.69 0.75 0.79 0.75
0.66 0.66 0.64 0.62 0.61 0.61 0.60 0.58 0.53 0.53 0.51 0.52 0.51 0.49 0.46 0.42 0.42 0.41 0.40 0.36 0.33 0.33 0.40 0.38 0.38 0.39 0.39 0.38 0.43 0.46 0.50 0.54 0.59 0.63 0.68 0.72 0.76 0.77
0.67 0.67 0.65 0.65 0.63 0.61 0.60 0.55 0.54 0.53 0.51 0.49 0.46 0.43 0.39 0.38 0.38 0.39 0.39 0.39 0.39 0.36 0.39 0.40 0.37 0.38 0.37 0.38 0.37 0.43 0.46 0.51 0.56 0.58 0.63 0.67 0.70 0.72
0.73 0.71 0.70 0.65 0.63 0.60 0.56 0.53 0.53 0.52 0.49 0.46 0.43 0.40 0.39 0.39 0.39 0.39 0.40 0.39 0.38 0.38 0.37 0.39 0.39 0.40 0.40 0.38 0.38 0.40 0.42 0.47 0.52 0.56 0.58 0.60 0.62 0.66
0.73 0.71 0.67 0.64 0.62 0.57 0.55 0.54 0.53 0.51 0.48 0.44 0.41 0.41 0.42 0.39 0.37 0.37 0.34 0.33 0.32 0.32 0.35 0.37 0.38 0.39 0.37 0.40 0.41 0.40 0.43 0.43 0.50 0.54 0.56 0.58 0.61 0.63
0.72 0.68 0.65 0.59 0.55 0.55 0.56 0.54 0.52 0.49 0.45 0.44 0.41 0.39 0.38 0.37 0.34 0.35 0.32 0.31 0.28 0.28 0.29 0.32 0.36 0.38 0.39 0.41 0.39 0.42 0.42 0.45 0.50 0.52 0.54 0.52 0.55 0.56
0.70 0.65 0.59 0.56 0.54 0.54 0.52 0.49 0.48 0.46 0.44 0.42 0.39 0.36 0.34 0.32 0.31 0.31 0.31 0.29 0.27 0.28 0.28 0.30 0.31 0.33 0.35 0.38 0.43 0.40 0.43 0.45 0.48 0.49 0.50 0.48 0.47 0.51
0.65 0.59 0.56 0.55 0.53 0.51 0.49 0.47 0.45 0.43 0.42 0.38 0.35 0.33 0.32 0.30 0.29 0.28 0.29 0.28 0.27 0.27 0.28 0.29 0.29 0.29 0.28 0.27 0.36 0.44 0.40 0.43 0.45 0.45 0.46 0.45 0.44 0.45
0.61 0.57 0.55 0.53 0.51 0.49 0.48 0.45 0.43 0.41 0.38 0.34 0.32 0.31 0.31 0.29 0.28 0.28 0.27 0.26 0.26 0.26 0.26 0.28 0.29 0.30 0.30 0.30 0.31 0.36 0.43 0.41 0.42 0.41 0.41 0.43 0.44 0.45
0.58 0.55 0.52 0.51 0.50 0.48 0.46 0.44 0.41 0.37 0.34 0.32 0.31 0.30 0.30 0.29 0.27 0.27 0.26 0.26 0.26 0.26 0.25 0.26 0.30 0.34 0.35 0.36 0.32 0.32 0.36 0.42 0.43 0.40 0.39 0.38 0.37 0.37
0.54 0.51 0.50 0.50 0.48 0.46 0.43 0.39 0.35 0.33 0.32 0.31 0.29 0.29 0.28 0.28 0.27 0.27 0.27 0.26 0.26 0.26 0.27 0.30 0.33 0.34 0.33 0.31 0.30 0.31 0.32 0.36 0.40 0.41 0.42 0.41 0.37 0.32
0.52 0.50 0.50 0.48 0.45 0.41 0.37 0.34 0.32 0.30 0.30 0.28 0.27 0.27 0.27 0.27 0.28 0.28 0.28 0.27 0.27 0.27 0.28 0.28 0.31 0.32 0.32 0.32 0.31 0.31 0.31 0.32 0.34 0.33 0.36 0.40 0.40 0.40